Overview Statistics Trail Chart Weather Telemetry Raw packets
 

This is the latest recevied weather packets stored in our database for station/object N5CSU. If no packets are shown the sender has not sent any weather packets the latest 10 day(s).

<< 2 3 4 5 6 7 8 >>
Time Temp. Humidity Pressure Rain* Wind** Luminosity Snow
1788603526 25° C 87% 1013.8 hPa 0 mm - 0 W/m² -
1788603224 25° C 87% 1013.9 hPa 0 mm - 0 W/m² -
1788602919 25° C 85% 1013.7 hPa 0 mm - 0 W/m² -
1788602615 25° C 87% 1013.7 hPa 0 mm - 0 W/m² -
1788602314 25° C 88% 1013.9 hPa 0 mm - 0 W/m² -
1788602009 25° C 87% 1013.5 hPa 0 mm - 0 W/m² -
1788601703 25° C 85% 1013.7 hPa 0 mm - 0 W/m² -
1788601409 25.56° C 88% 1013.7 hPa 0 mm - 0 W/m² -
1788601093 25.56° C 85% 1013.8 hPa 0 mm - 0 W/m² -
1788600788 26.11° C 80% 1013.7 hPa 0 mm - 0 W/m² -
1788600484 26.11° C 79% 1013.9 hPa 0 mm - 0 W/m² -
1788600179 26.11° C 79% 1013.9 hPa 0 mm - 0 W/m² -
1788599878 26.11° C 79% 1013.8 hPa 0 mm - 0 W/m² -
1788599573 26.67° C 78% 1013.7 hPa 0 mm - 0 W/m² -
1788599272 26.67° C 78% 1013.9 hPa 0 mm - 0 W/m² -
1788598968 26.67° C 78% 1013.5 hPa 0 mm - 0 W/m² -
1788598667 26.67° C 77% 1013.5 hPa 0 mm - 0 W/m² -
1788598367 26.67° C 77% 1013.5 hPa 0 mm - 0 W/m² -
1788598077 27.22° C 76% 1013.7 hPa 0 mm - 0 W/m² -
1788597762 27.22° C 76% 1013.4 hPa 0 mm - 0 W/m² -
1788597457 27.22° C 75% 1013.3 hPa 0 mm - 0 W/m² -
1788597152 27.22° C 75% 1013.4 hPa 0 mm - 0 W/m² -
1788596848 27.22° C 75% 1013.2 hPa 0 mm - 0 W/m² -
1788596543 27.22° C 75% 1013.3 hPa 0 mm - 0 W/m² -
1788596238 27.22° C 75% 1013.3 hPa 0 mm - 0 W/m² -

* Rain latest hour (hover to see other rain measurements)
** Current wind speed in m/s (hover to see current wind gust speed)